TimeCDT,TemperatureF,Dew PointF,Humidity,Sea Level PressureIn,VisibilityMPH,Wind Direction,Wind SpeedMPH,Gust SpeedMPH,PrecipitationIn,Events,Conditions,WindDirDegrees,DateUTC
12:13 AM,46.4,33.8,62,30.07,10.0,NNW,13.8,-,N/A,,Clear,340,2013-05-11 05:13:00
12:33 AM,46.4,33.8,62,30.08,10.0,NNW,15.0,-,N/A,,Clear,330,2013-05-11 05:33:00
1:13 AM,44.6,33.8,66,30.09,10.0,NNW,15.0,-,N/A,,Clear,330,2013-05-11 06:13:00
1:33 AM,44.6,32.0,61,30.10,10.0,NNW,13.8,-,N/A,,Clear,330,2013-05-11 06:33:00
1:53 AM,44.6,32.0,61,30.11,10.0,NNW,16.1,-,N/A,,Clear,330,2013-05-11 06:53:00
2:13 AM,42.8,32.0,66,30.12,10.0,NW,17.3,20.7,N/A,,Clear,320,2013-05-11 07:13:00
2:33 AM,42.8,30.2,61,30.12,10.0,NW,15.0,-,N/A,,Clear,320,2013-05-11 07:33:00
2:53 AM,42.8,30.2,61,30.12,10.0,NNW,13.8,-,N/A,,Clear,330,2013-05-11 07:53:00
3:14 AM,42.8,30.2,61,30.13,10.0,NNW,15.0,-,N/A,,Clear,330,2013-05-11 08:14:00
3:33 AM,42.8,28.4,57,30.14,10.0,NNW,15.0,-,N/A,,Clear,330,2013-05-11 08:33:00
3:53 AM,41.0,26.6,57,30.14,10.0,NNW,15.0,-,N/A,,Clear,330,2013-05-11 08:53:00
4:13 AM,39.2,26.6,61,30.15,10.0,NNW,16.1,-,N/A,,Clear,340,2013-05-11 09:13:00
4:34 AM,39.2,26.6,61,30.15,10.0,NNW,13.8,19.6,N/A,,Clear,330,2013-05-11 09:34:00
4:53 AM,39.2,26.6,61,30.16,10.0,NNW,16.1,-,N/A,,Scattered Clouds,330,2013-05-11 09:53:00
5:13 AM,39.2,26.6,61,30.16,10.0,NNW,13.8,-,N/A,,Scattered Clouds,330,2013-05-11 10:13:00
5:33 AM,37.4,26.6,65,30.17,10.0,NNW,12.7,-,N/A,,Clear,330,2013-05-11 10:33:00
5:53 AM,37.4,26.6,65,30.17,10.0,NNW,11.5,-,N/A,,Clear,330,2013-05-11 10:53:00
6:13 AM,37.4,28.4,70,30.18,10.0,NNW,16.1,19.6,N/A,,Clear,330,2013-05-11 11:13:00
6:33 AM,39.2,28.4,65,30.19,10.0,NNW,19.6,26.5,N/A,,Clear,330,2013-05-11 11:33:00
6:53 AM,39.2,28.4,65,30.20,10.0,NNW,18.4,25.3,N/A,,Clear,330,2013-05-11 11:53:00
7:14 AM,39.2,30.2,70,30.21,10.0,NNW,24.2,31.1,N/A,,Clear,330,2013-05-11 12:14:00
7:34 AM,41.0,30.2,65,30.22,10.0,NNW,23.0,33.4,N/A,,Clear,340,2013-05-11 12:34:00
7:54 AM,41.0,30.2,65,30.23,10.0,NNW,23.0,31.1,N/A,,Clear,330,2013-05-11 12:54:00
8:13 AM,41.0,30.2,65,30.23,10.0,North,25.3,33.4,N/A,,Scattered Clouds,350,2013-05-11 13:13:00
8:33 AM,42.8,28.4,57,30.24,10.0,North,27.6,36.8,N/A,,Scattered Clouds,350,2013-05-11 13:33:00
8:53 AM,42.8,28.4,57,30.24,10.0,NNW,25.3,33.4,N/A,,Scattered Clouds,330,2013-05-11 13:53:00
9:13 AM,44.6,26.6,49,30.24,10.0,NNW,28.8,34.5,N/A,,Scattered Clouds,340,2013-05-11 14:13:00
9:34 AM,44.6,24.8,46,30.24,10.0,North,29.9,34.5,N/A,,Scattered Clouds,350,2013-05-11 14:34:00
9:53 AM,46.4,24.8,43,30.24,10.0,North,31.1,36.8,N/A,,Clear,350,2013-05-11 14:53:00
10:14 AM,46.4,23.0,40,30.25,10.0,NNW,28.8,35.7,N/A,,Scattered Clouds,340,2013-05-11 15:14:00
10:33 AM,46.4,21.2,37,30.25,10.0,NNW,32.2,39.1,N/A,,Scattered Clouds,340,2013-05-11 15:33:00
10:53 AM,48.2,21.2,34,30.25,10.0,NNW,27.6,35.7,N/A,,Mostly Cloudy,330,2013-05-11 15:53:00
11:13 AM,48.2,19.4,32,30.25,10.0,NNW,33.4,39.1,N/A,,Scattered Clouds,340,2013-05-11 16:13:00
11:33 AM,48.2,19.4,32,30.25,10.0,NNW,31.1,39.1,N/A,,Clear,340,2013-05-11 16:33:00
11:53 AM,50.0,19.4,30,30.25,10.0,North,31.1,38.0,N/A,,Clear,350,2013-05-11 16:53:00
12:33 PM,51.8,17.6,26,30.26,10.0,NNW,27.6,36.8,N/A,,Scattered Clouds,340,2013-05-11 17:33:00
12:54 PM,51.8,17.6,26,30.25,10.0,NNW,27.6,36.8,N/A,,Scattered Clouds,340,2013-05-11 17:54:00
1:34 PM,51.8,15.8,24,30.25,10.0,NNW,28.8,35.7,N/A,,Clear,330,2013-05-11 18:34:00
1:54 PM,51.8,17.6,26,30.25,10.0,North,27.6,35.7,N/A,,Clear,350,2013-05-11 18:54:00
2:13 PM,51.8,17.6,26,30.25,10.0,NNW,24.2,33.4,N/A,,Clear,330,2013-05-11 19:13:00
2:33 PM,53.6,17.6,24,30.24,10.0,NNW,24.2,35.7,N/A,,Scattered Clouds,330,2013-05-11 19:33:00
2:54 PM,53.6,15.8,22,30.24,10.0,NNW,28.8,36.8,N/A,,Clear,330,2013-05-11 19:54:00
3:13 PM,53.6,15.8,22,30.24,10.0,NNW,21.9,40.3,N/A,,Clear,330,2013-05-11 20:13:00
3:33 PM,53.6,14.0,21,30.24,10.0,NW,29.9,35.7,N/A,,Scattered Clouds,320,2013-05-11 20:33:00
3:53 PM,53.6,14.0,21,30.23,10.0,NW,26.5,35.7,N/A,,Scattered Clouds,320,2013-05-11 20:53:00
4:13 PM,55.4,14.0,20,30.22,10.0,NW,28.8,34.5,N/A,,Scattered Clouds,320,2013-05-11 21:13:00
4:33 PM,55.4,15.8,21,30.21,10.0,NW,23.0,32.2,N/A,,Scattered Clouds,320,2013-05-11 21:33:00
4:54 PM,53.6,15.8,22,30.21,10.0,North,25.3,38.0,N/A,,Scattered Clouds,350,2013-05-11 21:54:00
5:13 PM,53.6,15.8,22,30.21,10.0,NNW,21.9,33.4,N/A,,Clear,330,2013-05-11 22:13:00
5:34 PM,55.4,15.8,21,30.22,10.0,NNW,20.7,28.8,N/A,,Clear,330,2013-05-11 22:34:00
5:53 PM,53.6,15.8,22,30.21,10.0,NNW,21.9,31.1,N/A,,Clear,330,2013-05-11 22:53:00
6:13 PM,53.6,14.0,21,30.21,10.0,North,25.3,33.4,N/A,,Clear,350,2013-05-11 23:13:00
6:33 PM,53.6,14.0,21,30.21,10.0,NNW,24.2,32.2,N/A,,Clear,340,2013-05-11 23:33:00
6:54 PM,53.6,12.2,19,30.21,10.0,NNW,24.2,31.1,N/A,,Clear,340,2013-05-11 23:54:00
7:13 PM,53.6,12.2,19,30.21,10.0,NNW,25.3,31.1,N/A,,Clear,340,2013-05-12 00:13:00
7:34 PM,51.8,14.0,22,30.21,10.0,North,20.7,27.6,N/A,,Clear,350,2013-05-12 00:34:00
7:53 PM,51.8,12.2,21,30.21,10.0,NNW,21.9,27.6,N/A,,Clear,340,2013-05-12 00:53:00
8:13 PM,50.0,14.0,24,30.21,10.0,North,18.4,24.2,N/A,,Clear,350,2013-05-12 01:13:00
8:33 PM,48.2,15.8,27,30.21,10.0,North,15.0,21.9,N/A,,Clear,360,2013-05-12 01:33:00
8:53 PM,46.4,15.8,29,30.22,10.0,North,13.8,-,N/A,,Clear,360,2013-05-12 01:53:00
9:13 PM,44.6,15.8,31,30.22,10.0,North,12.7,-,N/A,,Clear,350,2013-05-12 02:13:00
9:33 PM,44.6,15.8,31,30.22,10.0,North,10.4,-,N/A,,Clear,360,2013-05-12 02:33:00
9:54 PM,41.0,17.6,39,30.23,10.0,North,8.1,-,N/A,,Clear,360,2013-05-12 02:54:00
10:13 PM,39.2,17.6,42,30.23,10.0,North,8.1,-,N/A,,Clear,350,2013-05-12 03:13:00
10:33 PM,37.4,17.6,45,30.23,10.0,North,8.1,-,N/A,,Clear,350,2013-05-12 03:33:00
10:53 PM,35.6,19.4,52,30.23,10.0,North,8.1,-,N/A,,Clear,350,2013-05-12 03:53:00
11:13 PM,37.4,19.4,48,30.23,10.0,NNW,5.8,-,N/A,,Clear,330,2013-05-12 04:13:00
11:33 PM,35.6,17.6,48,30.23,10.0,NNW,6.9,-,N/A,,Clear,330,2013-05-12 04:33:00
11:53 PM,35.6,17.6,48,30.24,10.0,NNW,5.8,-,N/A,,Clear,330,2013-05-12 04:53:00